Hourly Weather Roundup
Issued by NWS Central Illinois

Home | Current Version | Previous Version | Text Only | Print | Product List | Glossary On
Versions: 1 2 3 4 5 6 7 8 9 10 11 12 13 14 15 16 17 18 19 20 21 22 23 24 25 26 27 28 29 30 31 32 33 34 35 36 37 38 39 40 41 42 43 44 45 46 47 48 49 50
000
NZUS43 KILX 240510
HWRILX

Area Weather Roundup
National Weather Service Lincoln IL
1200 AM CDT TUE OCT 24 2017

NOTE:  "FAIR" indicates few or no clouds below 12,000 feet, with
       no sigificant weather and/or obstructions to visibility.


CITY           SKY/WX    TMP DP  RH WIND       PRES   REMARKS
Bloomington    CLOUDY    49  44  83 W17G26    29.71F
Champaign      NOT AVBL
Danville       LGT RAIN  49  47  95 W10       29.67F
Decatur        CLOUDY    49  49 100 W8        29.75F
Effingham      CLOUDY    51  50  94 SW8       29.78F
Flora          CLOUDY    53  49  83 W8        29.79S
Jacksonville   MOCLDY    50  39  66 W13G23    29.80F
Lacon          CLOUDY    49  41  72 W12       29.70F
Lawrenceville  LGT RAIN  53  32  44 W7        29.76F
Litchfield     CLOUDY    51  44  75 NW9       29.80F
$$


CITY           SKY/WX    TMP DP  RH WIND       PRES   REMARKS
Lincoln        MOCLDY    50  44  79 W7        29.74F
Macomb         CLOUDY    48  40  74 W16G23    29.81F
Mattoon        CLOUDY    50  48  93 W14       29.75F
Mt Carmel AP   CLOUDY    52  49  87 NW6       29.76F
Olney-Noble AP CLOUDY    52  50  93 W7        29.77F
Paris AP       CLOUDY    49  47  93 W12G17    29.73S
Peoria         CLEAR     49  41  74 W10       29.73F
Pontiac        CLOUDY    51  49  92 W15       29.68F
Rantoul        CLOUDY    51  49  96 W8        29.69F
Robinson       CLOUDY    50  48  93 W7        29.77F
Springfield    CLOUDY    52  43  71 NW15G21   29.78F
Taylorville    CLOUDY    49  43  78 W8        29.78S
$$

...REGIONAL REPORTS...


CITY           SKY/WX    TMP DP  RH WIND       PRES   REMARKS
Chicago O`Hare LGT RAIN  51  46  83 W13G22    29.59F
Kankakee       DRIZZLE   50  49  96 W9        29.65F
Moline         CLOUDY    51  37  58 W15G23    29.72F
Mount Sterling CLOUDY    50  39  66 NW21G26   29.82F
Mount Vernon   LGT RAIN  52  47  83 VRB7G21   29.82S
Pittsfield     CLOUDY    53  40  61 W13G21    29.84F
Quincy         CLOUDY    51  35  54 NW18G26   29.84F
Rockford       LGT RAIN  47  44  90 W13       29.65F
$$


CITY           SKY/WX    TMP DP  RH WIND       PRES   REMARKS
Burlington     CLOUDY    50  38  63 NW13      29.79F
Cedar Rapids   CLOUDY    50  32  50 NW20G30   29.76F
Des Moines     CLOUDY    50  31  48 NW17G24   29.89F
Kirksville     CLOUDY    50  36  58 W13       29.91F
Ottumwa        CLOUDY    51  33  50 NW18G28   29.84F
St Louis       MOCLDY    54  40  59 W18G25    29.85F
$$


CITY           SKY/WX    TMP DP  RH WIND       PRES   REMARKS
Terre Haute    CLOUDY    50  46  86 W9        29.73S
Evansville     CLOUDY    51  48  89 SW3       29.78F
Indianapolis   LGT RAIN  50  47  89 SW12      29.69F
Lafayette      LGT RAIN  50  49  96 W14G24    29.66F
Madison        RAIN      48  45  89 W9        29.59F
Milwaukee      CLOUDY    53  47  79 NW14G23   29.54F
$$






USA.gov is the U.S. government's official web portal to all federal, state and local government web resources and services.